Rakoskert, Hungary

7:27 AM CET on February 25, 2017 (GMT +0100)
Ferihegy

Weather History for LHBP - June, 2014

Change the Weather History Date:

Friday, June 6, 2014

  Actual Average Record
Temperature  
Mean Temperature 68 °F -  
Max Temperature 80 °F 76 °F 93 °F (2003)
Min Temperature 57 °F 54 °F 39 °F (2006)
Cooling Degree Days 4    
Growing Degree Days 18 (Base 50)    
Moisture  
Dew Point 55 °F    
Average Humidity 61    
Maximum Humidity 94    
Minimum Humidity 37    
Precipitation  
Precipitation 0.00 in - - ()
Sea Level Pressure  
Sea Level Pressure 30.04 in    
Wind  
Wind Speed 5 mph ()    
Max Wind Speed 10 mph    
Max Gust Speed -    
Visibility 6.2 miles    
Events      
Averages and records for this station are not official NWS values.
T = Trace of Precipitation, MM = Missing Value Source: Averaged Metar Reports

Daily Weather History Graph

Daily Weather History Graph

Search for Another Location

Airport or City:

Trip Planner

Search our weather history database for the weather conditions in past years. The results will help you decide how hot, cold, wet, or windy it might be!

Date:

Astronomy

Jun. 06, 2014 Rise Set
Actual Time 4:47 AM CEST 8:36 PM CEST
Civil Twilight 4:07 AM CEST 9:15 PM CEST
Nautical Twilight 3:14 AM CEST 10:09 PM CEST
Astronomical Twilight 1:55 AM CEST 11:29 PM CEST
Moon 1:10 PM CEST (6/6) 12:59 AM CEST (6/6)
Length of Visible Light 17h 07m
Length of Day
15h 48m
First Quarter, 55% of the Moon is Illuminated
Jun 6
First Quarter
Jun 13
Full
Jun 19
Last Quarter
Jun 27
New
Jul 5
First Quarter

Hourly Weather History & Observations

Time (CEST) Temp. Heat Index Dew Point Humidity Pressure Visibility Wind Dir Wind Speed Gust Speed Precip Events Conditions
12:00 AM 64.4 °F - 57.2 °F 77% 30.01 in - NW 4.6 mph - N/A   Clear
12:30 AM 64.4 °F - 55.4 °F 73% 30.01 in - NW 4.6 mph - N/A   Clear
1:00 AM 64.4 °F - 55.4 °F 73% 30.01 in - Variable 3.5 mph - N/A   Clear
1:30 AM 64.4 °F - 55.4 °F 73% 30.01 in - Variable 2.3 mph - N/A   Clear
2:00 AM 62.6 °F - 57.2 °F 82% 30.04 in - West 4.6 mph - N/A   Clear
2:30 AM 62.6 °F - 57.2 °F 82% 30.04 in - Variable 2.3 mph - N/A   Clear
3:00 AM 60.8 °F - 55.4 °F 82% 30.04 in - Variable 2.3 mph - N/A   Clear
3:30 AM 59.0 °F - 53.6 °F 82% 30.04 in - WNW 5.8 mph - N/A   Clear
4:00 AM 59.0 °F - 53.6 °F 82% 30.04 in - West 6.9 mph - N/A   Clear
4:30 AM 59.0 °F - 53.6 °F 82% 30.04 in - NW 5.8 mph - N/A   Clear
5:00 AM 57.2 °F - 53.6 °F 88% 30.04 in - Variable 2.3 mph - N/A   Clear
5:30 AM 59.0 °F - 53.6 °F 82% 30.04 in - West 4.6 mph - N/A   Clear
6:00 AM 57.2 °F - 55.4 °F 94% 30.04 in - WNW 6.9 mph - N/A   Clear
6:30 AM 60.8 °F - 57.2 °F 88% 30.04 in - NW 4.6 mph - N/A   Clear
7:00 AM 62.6 °F - 55.4 °F 77% 30.04 in - NW 5.8 mph - N/A   Clear
7:30 AM 66.2 °F - 57.2 °F 73% 30.04 in - Variable 3.5 mph - N/A   Clear
8:00 AM 66.2 °F - 57.2 °F 73% 30.06 in - WNW 5.8 mph - N/A   Clear
8:30 AM 69.8 °F - 57.2 °F 64% 30.06 in - WNW 6.9 mph - N/A   Clear
9:00 AM 71.6 °F - 57.2 °F 60% 30.06 in - WNW 5.8 mph - N/A   Clear
9:30 AM 73.4 °F - 57.2 °F 57% 30.06 in - WNW 6.9 mph - N/A   Clear
10:00 AM 73.4 °F - 55.4 °F 53% 30.06 in 6.2 mi WNW 5.8 mph - N/A   Partly Cloudy
10:30 AM 75.2 °F - 55.4 °F 50% 30.06 in 6.2 mi North 5.8 mph - N/A   Partly Cloudy
11:00 AM 77.0 °F - 55.4 °F 47% 30.06 in 6.2 mi Variable 3.5 mph - N/A   Partly Cloudy
11:30 AM 77.0 °F - 55.4 °F 47% 30.06 in 6.2 mi WSW 5.8 mph - N/A   Scattered Clouds
12:00 PM 75.2 °F - 55.4 °F 50% 30.06 in 6.2 mi West 5.8 mph - N/A   Scattered Clouds
12:30 PM 77.0 °F - 55.4 °F 47% 30.06 in - NNW 8.1 mph - N/A   Clear
1:00 PM 77.0 °F - 55.4 °F 47% 30.04 in - WNW 6.9 mph - N/A   Clear
1:30 PM 77.0 °F - 53.6 °F 44% 30.04 in - North 4.6 mph - N/A   Clear
2:00 PM 78.8 °F - 51.8 °F 39% 30.04 in - NW 5.8 mph - N/A   Clear
2:30 PM 80.6 °F 80.3 °F 53.6 °F 39% 30.04 in - Variable 3.5 mph - N/A   Clear
3:00 PM 80.6 °F 80.3 °F 53.6 °F 39% 30.04 in - West 9.2 mph - N/A   Clear
3:30 PM 78.8 °F - 53.6 °F 42% 30.04 in - West 8.1 mph - N/A   Clear
4:00 PM 80.6 °F 80.3 °F 53.6 °F 39% 30.01 in - WNW 9.2 mph - N/A   Clear
4:30 PM 78.8 °F - 51.8 °F 39% 30.01 in - WNW 4.6 mph - N/A   Clear
5:00 PM 80.6 °F 80.3 °F 53.6 °F 39% 30.01 in - West 9.2 mph - N/A   Clear
5:30 PM 80.6 °F 80.3 °F 53.6 °F 39% 30.01 in - West 10.4 mph - N/A   Clear
6:00 PM 80.6 °F - 51.8 °F 37% 30.01 in - West 10.4 mph - N/A   Clear
6:30 PM 78.8 °F - 53.6 °F 42% 30.01 in - West 10.4 mph - N/A   Clear
7:00 PM 78.8 °F - 53.6 °F 42% 30.01 in - WNW 9.2 mph - N/A   Clear
7:30 PM 77.0 °F - 53.6 °F 44% 30.04 in - NW 8.1 mph - N/A   Clear
8:00 PM 75.2 °F - 53.6 °F 47% 30.04 in - NW 8.1 mph - N/A   Clear
8:30 PM 73.4 °F - 53.6 °F 50% 30.04 in - NW 6.9 mph - N/A   Clear
9:00 PM 68.0 °F - 53.6 °F 60% 30.04 in - NW 5.8 mph - N/A   Clear
9:30 PM 66.2 °F - 53.6 °F 64% 30.06 in - Variable 2.3 mph - N/A   Clear
10:00 PM 64.4 °F - 55.4 °F 73% 30.06 in - Variable 3.5 mph - N/A   Clear
10:30 PM 64.4 °F - 53.6 °F 68% 30.06 in - Variable 2.3 mph - N/A   Clear
11:00 PM 64.4 °F - 53.6 °F 68% 30.06 in - Variable 3.5 mph - N/A   Clear
11:30 PM 62.6 °F - 53.6 °F 72% 30.06 in - Variable 2.3 mph - N/A   Clear